1496336400.99,62568,21.75,74184.0,4.55,-30.89,-31.01,0,*77
1496336402.21,62569,21.75,74186.0,4.55,-30.83,-31.01,0,*7C
1496336403.47,62570,21.81,74188.3,4.57,-31.11,-31.11,0,*7D
1496336404.67,62571,21.75,74188.8,4.57,-31.29,-31.33,0,*77
1496336405.94,62572,21.75,74184.3,4.55,-31.39,-31.51,0,*73
1496336407.16,62573,21.75,74182.3,4.55,-31.05,-31.17,0,*7F
1496336408.42,62574,21.81,74186.8,4.53,-30.95,-31.11,0,*70
1496336409.67,62575,21.75,74184.3,4.53,-30.95,-31.11,0,*71
1496336410.94,62576,21.75,74186.8,4.53,-30.73,-30.77,0,*7B
1496336412.2,62577,21.75,74184.0,4.55,-30.83,-30.89,0,*72
1496336413.45,62578,21.81,74186.0,4.55,-30.73,-30.83,0,*78
1496336414.71,62579,21.81,74186.3,4.55,-30.73,-30.83,0,*79
1496336415.97,62580,21.75,74182.8,4.55,-30.83,-30.89,0,*7A
1496336417.2,62581,21.81,74186.5,4.55,-31.01,-31.17,0,*76
1496336418.45,62582,21.81,74186.5,4.55,-30.89,-31.01,0,*73
1496336419.7,62583,21.81,74188.3,4.55,-30.73,-30.83,0,*7C
1496336420.94,62584,21.75,74186.5,4.55,-30.83,-30.83,0,*74
1496336422.17,62585,21.75,74184.3,4.55,-30.67,-31.01,0,*74
1496336423.43,62586,21.81,74184.3,4.53,-30.73,-30.89,0,*75
1496336424.65,62587,21.75,74184.3,4.55,-30.83,-31.05,0,*78
1496336425.9,62588,21.75,74182.5,4.55,-30.89,-31.01,0,*79
1496336427.19,62589,21.81,74186.5,4.55,-30.89,-30.89,0,*79
1496336428.42,62590,21.75,74184.8,4.55,-30.67,-30.83,0,*7B
1496336429.68,62591,21.81,74184.3,4.55,-30.73,-30.83,0,*7F
1496336430.94,62592,21.75,74186.0,4.55,-30.67,-30.73,0,*76
1496336432.2,62593,21.75,74184.8,4.55,-30.67,-30.73,0,*77
1496336433.45,62594,21.75,74186.8,4.55,-30.45,-30.61,0,*73
1496336434.67,62595,21.81,74184.0,4.55,-30.33,-30.27,0,*71
1496336435.92,62596,21.75,74182.5,4.55,-30.45,-30.51,0,*72
1496336437.14,62597,21.75,74184.0,4.55,-30.45,-30.45,0,*76
1496336438.39,62598,21.75,74182.8,4.55,-30.61,-30.67,0,*7F
1496336439.65,62599,21.75,74184.8,4.55,-30.67,-30.73,0,*7D
1496336440.93,62600,21.75,74184.5,4.55,-30.61,-30.73,0,*78
1496336442.19,62601,21.81,74182.8,4.53,-30.77,-30.89,0,*7D
1496336443.45,62602,21.81,74186.5,4.55,-30.73,-30.83,0,*76
1496336444.67,62603,21.75,74182.0,4.57,-30.77,-31.01,0,*7A
1496336445.92,62604,21.81,74186.5,4.57,-30.95,-31.11,0,*70
1496336447.15,62605,21.81,74180.0,4.57,-30.55,-30.67,0,*7D
1496336448.35,62606,21.81,74182.3,4.57,-30.45,-30.67,0,*7F
1496336449.61,62607,21.81,74182.8,4.57,-30.61,-30.77,0,*79
1496336450.84,62608,21.75,74176.5,4.57,-30.77,-30.83,0,*7A
1496336452.09,62609,21.81,74178.3,4.57,-30.61,-30.77,0,*77
1496336453.33,62610,21.81,74178.8,4.57,-30.67,-30.77,0,*79
1496336454.56,62611,21.75,74180.0,4.57,-30.77,-30.83,0,*72
1496336455.76,62612,21.75,74180.5,4.57,-31.01,-31.01,0,*7A
1496336456.98,62613,21.81,74176.5,4.61,-31.01,-31.11,0,*7F
1496336458.21,62614,21.81,74182.0,4.57,-31.11,-31.17,0,*7A
1496336459.43,62615,21.81,74182.8,4.57,-31.01,-31.11,0,*7C
1496336460.66,62616,21.81,74180.0,4.57,-30.83,-30.95,0,*79
1496336461.89,62617,21.81,74178.8,4.57,-30.61,-30.67,0,*79
1496336463.13,62618,21.81,74184.3,4.55,-30.45,-30.51,0,*77
1496336464.39,62619,21.81,74182.5,4.55,-30.61,-30.83,0,*7F
1496336465.64,62620,21.81,74184.0,4.55,-30.61,-30.67,0,*7F
1496336466.9,62621,21.81,74180.0,4.55,-30.67,-30.73,0,*7D
1496336468.15,62622,21.81,74182.0,4.57,-30.61,-30.61,0,*79
1496336469.41,62623,21.81,74182.8,4.57,-30.77,-30.77,0,*78
1496336470.66,62624,21.81,74182.5,4.57,-30.95,-31.11,0,*72
1496336471.92,62625,21.81,74180.5,4.57,-30.95,-31.11,0,*73
1496336473.14,62626,21.81,74184.0,4.57,-30.83,-30.95,0,*7A
1496336474.37,62627,21.81,74186.0,4.57,-30.77,-30.83,0,*77
1496336475.58,62628,21.81,74188.8,4.57,-30.67,-30.83,0,*79
1496336476.84,62629,21.81,74186.5,4.57,-30.77,-30.77,0,*72
1496336478.07,62630,21.75,74182.3,4.57,-30.55,-30.83,0,*71
1496336479.27,62631,21.81,74184.0,4.57,-30.67,-30.83,0,*71
1496336480.52,62632,21.81,74184.0,4.57,-30.77,-30.95,0,*74
1496336481.75,62633,21.81,74186.3,4.57,-30.61,-30.83,0,*75
1496336482.98,62634,21.81,74184.3,4.57,-30.61,-30.83,0,*72
1496336484.21,62635,21.81,74182.0,4.57,-30.61,-30.67,0,*79
1496336485.46,62636,21.81,74180.5,4.57,-30.55,-30.61,0,*7B
1496336486.69,62637,21.81,74184.8,4.57,-30.67,-30.77,0,*7C
1496336487.89,62638,21.81,74186.8,4.57,-30.83,-31.01,0,*79
1496336489.12,62639,21.81,74182.3,4.57,-30.83,-30.95,0,*74
1496336490.38,62640,21.81,74178.0,4.55,-30.67,-30.89,0,*7F
1496336491.58,62641,21.81,74180.0,4.61,-30.45,-30.67,0,*79
1496336492.81,62642,21.81,74184.0,4.57,-30.55,-30.67,0,*7E
1496336494.03,62643,21.81,74182.3,4.57,-30.55,-30.67,0,*7F
1496336495.23,62644,21.81,74182.3,4.57,-30.45,-30.67,0,*79
1496336496.46,62645,21.81,74182.3,4.57,-30.55,-30.67,0,*79
1496336497.68,62646,21.81,74186.5,4.57,-30.67,-30.95,0,*76
1496336498.89,62647,21.81,74182.5,4.57,-30.67,-30.83,0,*70
1496336500.12,62648,21.81,74184.0,4.61,-30.77,-31.01,0,*70
1496336501.38,62649,21.81,74188.0,4.57,-30.77,-30.77,0,*74
1496336502.62,62650,21.81,74186.3,4.57,-30.77,-30.95,0,*70
1496336503.87,62651,21.81,74186.5,4.57,-30.77,-30.95,0,*71
1496336505.12,62652,21.81,74182.3,4.57,-30.77,-30.95,0,*72
1496336506.37,62653,21.81,74184.3,4.57,-30.55,-30.61,0,*78
1496336507.62,62654,21.81,74184.8,4.57,-30.61,-30.77,0,*7F
1496336508.88,62655,21.81,74182.5,4.61,-30.61,-30.77,0,*7B
1496336510.14,62656,21.81,74182.3,4.57,-30.61,-30.77,0,*7D
1496336511.39,62657,21.81,74184.8,4.57,-30.55,-30.77,0,*7B
1496336512.65,62658,21.81,74180.3,4.57,-30.61,-30.77,0,*73
1496336513.88,62659,21.81,74176.5,4.61,-30.61,-30.67,0,*76
1496336515.13,62660,21.81,74176.5,4.57,-30.61,-30.77,0,*78
1496336516.4,62661,21.81,74186.3,4.61,-30.77,-30.77,0,*7B
1496336517.65,62662,21.81,74178.0,4.61,-30.95,-31.11,0,*75
1496336518.88,62663,21.81,74180.8,4.57,-30.83,-30.95,0,*7B
1496336520.1,62664,21.81,74186.0,4.57,-30.77,-31.01,0,*7B
1496336521.31,62665,21.81,74182.8,4.57,-30.83,-30.83,0,*7A
1496336522.56,62666,21.81,74180.0,4.57,-30.55,-30.77,0,*79
1496336523.82,62667,21.81,74178.3,4.57,-30.61,-30.77,0,*7F
1496336525.03,62668,21.81,74180.0,4.61,-30.67,-30.83,0,*78
1496336526.28,62669,21.81,74186.5,4.57,-30.77,-30.95,0,*7A
1496336527.52,62670,21.81,74186.3,4.57,-30.67,-30.77,0,*7F
1496336528.74,62671,21.81,74184.3,4.57,-30.67,-30.95,0,*72
1496336529.97,62672,21.81,74180.3,4.61,-30.55,-30.67,0,*78
1496336531.22,62673,21.81,74184.0,4.61,-30.77,-30.95,0,*74
1496336532.44,62674,21.81,74182.3,4.57,-30.67,-30.95,0,*77
1496336533.67,62675,21.81,74182.5,4.61,-30.77,-31.01,0,*7E
1496336534.91,62676,21.81,74186.8,4.57,-30.67,-30.77,0,*79
1496336536.11,62677,21.81,74180.3,4.57,-30.83,-31.01,0,*72
1496336537.34,62678,21.81,74180.5,4.57,-30.83,-31.11,0,*7C
1496336538.56,62679,21.81,74182.0,4.57,-30.67,-30.95,0,*7A
1496336539.79,62680,21.81,74184.0,4.57,-30.77,-30.83,0,*7A
1496336541.0,62681,21.81,74180.0,4.57,-30.67,-30.83,0,*7A
1496336542.23,62682,21.81,74182.5,4.57,-30.67,-30.95,0,*7E
1496336543.43,62683,21.81,74182.8,4.57,-30.83,-31.01,0,*79
1496336544.67,62684,21.81,74180.0,4.57,-30.77,-30.95,0,*79
1496336545.9,62685,21.81,74182.5,4.57,-30.67,-30.95,0,*79
1496336547.13,62686,21.81,74180.8,4.57,-30.83,-31.11,0,*7D
1496336548.35,62687,21.81,74184.5,4.57,-30.83,-30.95,0,*71
1496336549.59,62688,21.81,74184.5,4.61,-31.11,-31.17,0,*7A
1496336550.81,62689,21.81,74184.3,4.57,-30.95,-31.01,0,*74
1496336552.03,62690,21.81,74186.5,4.57,-31.01,-31.11,0,*71
1496336553.23,62691,21.81,74190.8,4.57,-30.83,-31.01,0,*7A
1496336554.46,62692,21.81,74190.0,4.57,-31.11,-31.17,0,*74
1496336555.66,62693,21.81,74188.8,4.57,-31.01,-31.17,0,*74
1496336556.86,62694,21.81,74188.0,4.57,-31.01,-31.17,0,*73
1496336558.06,62695,21.81,74186.3,4.61,-31.01,-31.17,0,*77
1496336559.3,62696,21.81,74180.0,4.53,-31.23,-31.45,0,*72
1496336560.52,62697,21.81,74180.3,4.55,-31.05,-31.17,0,*76
1496336561.75,62698,21.81,74182.3,4.53,-30.89,-31.05,0,*79
1496336562.98,62699,21.81,74182.3,4.55,-30.83,-31.05,0,*74
1496336564.26,62700,21.81,74180.5,4.55,-30.73,-30.89,0,*7F
1496336565.51,62701,21.81,74186.8,4.55,-30.73,-31.01,0,*7F
1496336566.74,62702,21.81,74186.3,4.55,-30.67,-31.01,0,*79
1496336567.99,62703,21.81,74180.0,4.55,-30.89,-31.17,0,*7F
1496336569.24,62704,21.81,74186.3,4.55,-31.17,-31.23,0,*79
1496336570.5,62705,21.81,74184.8,4.55,-30.89,-31.17,0,*79
1496336571.75,62706,21.81,74182.8,4.55,-31.05,-31.23,0,*78
1496336573.0,62707,21.81,74184.0,4.55,-30.89,-31.17,0,*7B
1496336574.25,62708,21.81,74188.0,4.55,-30.89,-31.17,0,*74
1496336575.51,62709,21.81,74186.5,4.55,-31.17,-31.39,0,*7F
1496336576.73,62710,21.81,74186.0,4.55,-31.01,-31.33,0,*7A
1496336577.98,62711,21.81,74184.8,4.55,-30.89,-31.17,0,*7C
1496336579.23,62712,21.81,74184.0,4.55,-31.05,-31.23,0,*7D
1496336580.45,62713,21.81,74182.3,4.55,-31.05,-31.33,0,*7D
1496336581.7,62714,21.81,74184.5,4.55,-30.89,-31.17,0,*79
1496336582.93,62715,21.81,74180.8,4.55,-30.83,-31.05,0,*71
1496336584.15,62716,21.81,74188.0,4.55,-31.05,-31.17,0,*7E
1496336585.38,62717,21.81,74184.3,4.57,-31.01,-31.11,0,*7F
1496336586.6,62718,21.81,74180.8,4.57,-31.01,-31.11,0,*70
1496336587.85,62719,21.81,74176.5,4.55,-30.89,-31.17,0,*74
1496336589.13,62720,21.81,74178.8,4.55,-31.23,-31.51,0,*7D
1496336590.41,62721,21.81,74178.8,4.55,-31.23,-31.57,0,*7A
1496336591.63,62722,21.81,74180.8,4.55,-31.67,-31.67,0,*7A
1496336592.9,62723,21.81,74186.8,4.55,-31.39,-31.51,0,*75
1496336594.18,62724,21.81,74184.5,4.55,-31.39,-31.51,0,*72
1496336595.43,62725,21.81,74184.8,4.55,-31.23,-31.33,0,*7C
1496336596.7,62726,21.81,74184.5,4.55,-31.57,-31.73,0,*78
1496336597.95,62727,21.81,74174.3,4.55,-31.67,-31.73,0,*7A
1496336599.2,62728,21.81,74182.3,4.53,-31.61,-31.73,0,*75
1496336600.45,62729,21.81,74174.5,4.55,-31.17,-31.39,0,*7D
1496336601.73,62730,21.81,74184.0,4.55,-31.23,-31.51,0,*7C
1496336602.96,62731,21.81,74184.5,4.53,-31.05,-31.23,0,*7A
1496336604.18,62732,21.81,74188.0,4.55,-31.01,-31.17,0,*7C
1496336605.39,62733,21.81,74188.0,4.53,-31.29,-31.45,0,*76
1496336606.65,62734,21.81,74184.0,4.53,-30.95,-31.23,0,*77
1496336607.9,62735,21.81,74180.5,4.53,-30.89,-31.11,0,*7A
1496336609.1,62736,21.81,74184.0,4.53,-31.05,-31.29,0,*77
1496336610.34,62737,21.81,74180.3,4.53,-31.23,-31.45,0,*78
1496336611.57,62738,21.81,74176.3,4.53,-31.11,-31.29,0,*7C
1496336612.85,62739,21.81,74176.3,4.55,-31.23,-31.39,0,*7B
1496336614.08,62740,21.81,74174.8,4.53,-31.45,-31.61,0,*7E
1496336615.34,62741,21.81,74174.8,4.53,-31.23,-31.39,0,*72
1496336616.59,62742,21.81,74180.0,4.51,-31.29,-31.57,0,*71
1496336617.82,62743,21.81,74186.3,4.53,-31.11,-31.29,0,*70
1496336619.04,62744,21.81,74188.0,4.55,-31.01,-31.17,0,*7D
1496336620.28,62745,21.81,74180.5,4.53,-31.23,-31.29,0,*77
1496336621.51,62746,21.81,74176.3,4.53,-31.61,-31.79,0,*77
1496336622.71,62747,21.81,74174.5,4.53,-31.29,-31.45,0,*75
1496336623.99,62748,21.81,74178.8,4.51,-31.57,-31.61,0,*77
1496336625.25,62749,21.81,74182.3,4.51,-31.23,-31.45,0,*73
1496336626.52,62750,21.81,74182.8,4.51,-31.61,-31.73,0,*78
1496336627.77,62751,21.81,74180.5,4.51,-31.29,-31.39,0,*7B
1496336629.02,62752,21.81,74178.3,4.51,-31.29,-31.39,0,*78
1496336630.27,62753,21.81,74180.0,4.51,-31.61,-31.79,0,*71
1496336631.46,62754,21.81,74188.0,4.49,-31.67,-31.79,0,*79
1496336632.69,62755,21.81,74188.3,4.49,-31.33,-31.61,0,*70
1496336633.96,62756,21.81,74184.5,4.51,-31.57,-31.57,0,*7D
1496336635.24,62757,21.81,74182.0,4.51,-31.11,-31.23,0,*7D
1496336636.5,62758,21.81,74182.5,4.49,-30.95,-31.11,0,*77
1496336637.75,62759,21.81,74184.3,4.51,-30.95,-31.05,0,*7A
1496336638.98,62760,21.81,74182.0,4.49,-30.95,-31.17,0,*7A
1496336640.21,62761,21.81,74178.5,4.49,-31.11,-31.29,0,*7B
1496336641.48,62762,21.81,74180.3,4.51,-31.39,-31.39,0,*7A
1496336642.71,62763,21.81,74182.0,4.49,-31.33,-31.61,0,*75
1496336643.91,62764,21.81,74184.3,4.49,-31.01,-31.29,0,*7F
1496336645.14,62765,21.81,74180.3,4.49,-31.11,-31.33,0,*74
1496336646.34,62766,21.81,74182.3,4.49,-31.17,-31.33,0,*71
1496336647.57,62767,21.81,74182.0,4.49,-31.11,-31.29,0,*7D
1496336648.8,62768,21.88,74188.0,4.49,-30.95,-31.01,0,*75
1496336650.08,62769,21.81,74182.8,4.51,-30.95,-31.23,0,*7D
1496336651.28,62770,21.81,74180.0,4.49,-31.01,-31.29,0,*7A
1496336652.48,62771,21.81,74186.5,4.49,-31.01,-31.29,0,*7B
1496336653.75,62772,21.81,74180.8,4.51,-30.77,-30.95,0,*77
1496336654.98,62773,21.81,74180.3,4.49,-30.95,-31.17,0,*78
1496336656.21,62774,21.81,74180.0,4.49,-31.11,-31.29,0,*7F
1496336657.41,62775,21.81,74180.8,4.49,-31.01,-31.01,0,*75
1496336658.66,62776,21.81,74178.3,4.51,-30.77,-31.05,0,*7B
1496336659.94,62777,21.81,74178.3,4.51,-30.95,-31.11,0,*73
1496336661.21,62778,21.88,74184.5,4.51,-30.73,-30.95,0,*79
1496336662.48,62779,21.81,74184.0,4.51,-30.89,-31.11,0,*70
1496336663.73,62780,21.88,74186.3,4.51,-30.89,-31.05,0,*73
1496336664.98,62781,21.81,74182.3,4.53,-30.95,-31.11,0,*78
1496336666.26,62782,21.81,74182.8,4.51,-30.77,-30.89,0,*75
1496336667.54,62783,21.81,74182.0,4.51,-30.77,-30.89,0,*74
1496336668.82,62784,21.81,74182.3,4.51,-30.73,-30.77,0,*76
1496336670.06,62785,21.81,74184.5,4.49,-30.77,-30.83,0,*71
1496336671.33,62786,21.81,74182.8,4.51,-30.89,-30.95,0,*7D
1496336672.56,62787,21.81,74186.5,4.49,-30.95,-31.17,0,*73
1496336673.79,62788,21.88,74186.0,4.49,-30.95,-31.01,0,*7B
1496336674.99,62789,21.81,74186.5,4.49,-30.83,-31.01,0,*7D
1496336676.26,62790,21.81,74186.3,4.51,-30.73,-30.95,0,*7F
1496336677.47,62791,21.88,74184.8,4.49,-30.83,-31.05,0,*70
1496336678.75,62792,21.81,74184.0,4.51,-30.73,-30.89,0,*70
1496336679.97,62793,21.81,74182.8,4.49,-30.73,-31.01,0,*79
1496336681.25,62794,21.88,74186.5,4.51,-30.73,-30.89,0,*76
1496336682.5,62795,21.81,74186.8,4.51,-30.73,-31.05,0,*72
1496336683.71,62796,21.88,74186.5,4.49,-30.83,-31.17,0,*74
1496336684.96,62797,21.81,74184.5,4.49,-30.95,-31.11,0,*74
1496336686.22,62798,21.81,74180.5,4.49,-30.55,-30.77,0,*76
1496336687.49,62799,21.88,74176.3,4.51,-30.77,-30.95,0,*72
1496336688.76,62800,21.81,74170.3,4.51,-30.89,-31.11,0,*71
1496336690.04,62801,21.81,74172.5,4.51,-30.73,-30.89,0,*75
1496336691.31,62802,21.81,74178.0,4.51,-30.73,-30.95,0,*7B
1496336692.56,62803,21.88,74178.0,4.51,-30.77,-31.05,0,*76
1496336693.81,62804,21.88,74178.5,4.51,-31.05,-31.23,0,*71
1496336695.06,62805,21.88,74180.5,4.53,-30.89,-31.23,0,*77
1496336696.29,62806,21.88,74182.0,4.51,-31.05,-31.29,0,*79
1496336697.56,62807,21.88,74176.0,4.51,-30.95,-31.23,0,*7A
1496336698.81,62808,21.88,74172.8,4.51,-30.89,-31.05,0,*7C
1496336700.07,62809,21.88,74180.0,4.51,-31.23,-31.45,0,*78
1496336701.32,62810,21.81,74180.8,4.51,-30.95,-31.05,0,*78
1496336702.59,62811,21.88,74182.0,4.51,-30.95,-31.11,0,*7C
1496336703.87,62812,21.88,74186.0,4.51,-30.95,-31.11,0,*7F
1496336705.14,62813,21.81,74180.8,4.51,-30.77,-30.95,0,*7F
1496336706.41,62814,21.81,74176.5,4.51,-30.89,-31.11,0,*74
1496336707.66,62815,21.88,74180.5,4.51,-30.77,-31.05,0,*71
1496336708.93,62816,21.81,74178.8,4.51,-30.77,-30.95,0,*7A
1496336710.19,62817,21.81,74178.8,4.53,-30.73,-30.89,0,*70
1496336711.42,62818,21.88,74182.8,4.53,-30.89,-31.05,0,*7F
1496336712.64,62819,21.81,74178.0,4.53,-31.05,-31.11,0,*7E
1496336713.87,62820,21.88,74184.5,4.53,-30.77,-31.05,0,*75
1496336715.1,62821,21.81,74182.3,4.53,-30.89,-31.05,0,*75
1496336716.35,62822,21.81,74178.5,4.53,-30.89,-31.11,0,*73
1496336717.61,62823,21.88,74182.0,4.53,-30.89,-31.11,0,*72
1496336718.86,62824,21.88,74184.0,4.53,-30.89,-31.11,0,*75
1496336720.1,62825,21.88,74184.0,4.51,-31.05,-31.39,0,*79
1496336721.38,62826,21.88,74182.0,4.51,-31.11,-31.39,0,*7F
1496336722.64,62827,21.88,74180.3,4.51,-31.11,-31.29,0,*7F
1496336723.88,62828,21.88,74174.8,4.51,-30.73,-31.05,0,*7B
1496336725.13,62829,21.81,74174.3,4.51,-30.77,-31.05,0,*7E
1496336726.34,62830,21.88,74182.8,4.53,-31.45,-31.45,0,*70
1496336727.6,62831,21.88,74184.0,4.53,-31.23,-31.23,0,*71
1496336728.82,62832,21.81,74180.0,4.51,-31.05,-31.29,0,*7E
1496336730.07,62833,21.88,74180.3,4.51,-31.57,-31.79,0,*7D
1496336731.32,62834,21.88,74180.5,4.53,-31.39,-31.57,0,*7C
1496336732.59,62835,21.88,74186.5,4.51,-31.39,-31.61,0,*7A
1496336733.84,62836,21.88,74194.8,4.51,-31.45,-31.57,0,*77
1496336735.09,62837,21.81,74188.8,4.51,-31.39,-31.45,0,*7E
1496336736.34,62838,21.88,74184.8,4.51,-31.45,-31.57,0,*79
1496336737.56,62839,21.88,74182.8,4.49,-31.33,-31.51,0,*76
1496336738.81,62840,21.88,74182.3,4.51,-31.05,-31.23,0,*71
1496336740.01,62841,21.88,74182.0,4.49,-31.01,-31.29,0,*77
1496336741.28,62842,21.88,74182.0,4.51,-30.89,-30.95,0,*7A
1496336742.54,62843,21.88,74180.8,4.51,-31.11,-31.29,0,*7D
1496336743.78,62844,21.88,74182.8,4.51,-30.73,-31.05,0,*71
1496336745.01,62845,21.88,74182.3,4.49,-30.95,-31.17,0,*72
1496336746.26,62846,21.81,74178.3,4.51,-30.89,-31.05,0,*76
1496336747.54,62847,21.88,74182.3,4.51,-30.89,-31.11,0,*72
1496336748.82,62848,21.88,74182.3,4.51,-31.11,-31.23,0,*7C
1496336750.02,62849,21.81,74182.8,4.49,-31.01,-31.29,0,*7F
1496336751.25,62850,21.88,74184.8,4.49,-31.11,-31.29,0,*76
1496336752.48,62851,21.88,74184.8,4.49,-31.11,-31.33,0,*7C
1496336753.7,62852,21.88,74188.0,4.51,-31.05,-31.29,0,*78
1496336754.95,62853,21.88,74186.3,4.51,-31.05,-31.23,0,*73
1496336756.2,62854,21.88,74188.3,4.51,-31.05,-31.23,0,*74
1496336757.45,62855,21.88,74190.5,4.51,-31.45,-31.73,0,*74
1496336758.65,62856,21.88,74190.8,4.49,-31.29,-31.45,0,*71
1496336759.86,62857,21.88,74188.8,4.49,-31.01,-31.17,0,*7D
1496336761.09,62858,21.88,74190.3,4.49,-31.11,-31.17,0,*73
1496336762.29,62859,21.88,74188.3,4.49,-31.17,-31.33,0,*72
1496336763.53,62860,21.88,74186.3,4.49,-31.11,-31.45,0,*7F
1496336764.76,62861,21.88,74184.8,4.49,-31.11,-31.33,0,*7F
1496336765.98,62862,21.88,74186.3,4.49,-31.33,-31.51,0,*78
1496336767.19,62863,21.88,74186.3,4.49,-31.17,-31.45,0,*7A
1496336768.42,62864,21.88,74186.0,4.47,-31.01,-31.17,0,*73
1496336769.62,62865,21.88,74186.8,4.49,-31.01,-31.17,0,*7C
1496336770.88,62866,21.88,74190.5,4.49,-31.11,-31.11,0,*78
1496336772.07,62867,21.88,74190.8,4.49,-31.01,-31.29,0,*73
1496336773.32,62868,21.88,74188.5,4.47,-31.01,-31.11,0,*79
1496336774.55,62869,21.88,74188.5,4.47,-31.17,-31.29,0,*74
1496336775.78,62870,21.88,74188.8,4.47,-30.83,-31.01,0,*7A
1496336777.01,62871,21.88,74190.5,4.49,-31.11,-31.29,0,*75
1496336778.22,62872,21.88,74190.3,4.49,-31.17,-31.29,0,*70
1496336779.44,62873,21.88,74194.0,4.47,-31.01,-31.17,0,*75
1496336780.72,62874,21.88,74192.3,4.47,-30.95,-31.11,0,*78
1496336781.97,62875,21.88,74190.8,4.47,-30.73,-31.01,0,*70
1496336783.19,62876,21.88,74186.0,4.47,-30.83,-31.01,0,*7C
1496336784.47,62877,21.88,74186.0,4.47,-30.77,-30.95,0,*7A
1496336785.74,62878,21.88,74182.8,4.51,-30.77,-31.11,0,*7F
1496336787.02,62879,21.88,74184.8,4.51,-30.89,-31.11,0,*7F
1496336788.27,62880,21.88,74186.5,4.49,-30.95,-31.11,0,*7D
1496336789.5,62881,21.88,74182.3,4.49,-30.73,-31.01,0,*75
1496336790.73,62882,21.88,74182.0,4.49,-30.77,-31.01,0,*72
1496336791.95,62883,21.88,74178.8,4.49,-31.11,-31.33,0,*73
1496336793.21,62884,21.88,74178.8,4.51,-31.23,-31.45,0,*7D
1496336794.44,62885,21.88,74180.3,4.51,-31.29,-31.45,0,*76
1496336795.71,62886,21.88,74182.5,4.51,-31.39,-31.57,0,*77
1496336796.96,62887,21.88,74180.5,4.51,-31.29,-31.39,0,*7F
1496336798.21,62888,21.88,74182.8,4.49,-31.61,-31.61,0,*78
1496336799.43,62889,21.88,74182.8,4.49,-31.45,-31.45,0,*79
1496336800.63,62890,21.88,74186.3,4.49,-31.29,-31.33,0,*7A
1496336801.83,62891,21.88,74184.5,4.49,-31.33,-31.45,0,*71
1496336803.03,62892,21.88,74188.8,4.49,-31.01,-31.29,0,*79
1496336804.27,62893,21.88,74188.3,4.49,-31.11,-31.29,0,*79
1496336805.48,62894,21.88,74186.8,4.49,-31.29,-31.45,0,*7F
1496336806.75,62895,21.88,74186.8,4.51,-31.23,-31.39,0,*76
1496336807.96,62896,21.88,74186.3,4.49,-31.17,-31.29,0,*7A
1496336809.18,62897,21.88,74186.3,4.47,-31.45,-31.67,0,*78
1496336810.43,62898,21.88,74184.8,4.51,-31.45,-31.57,0,*73
1496336811.66,62899,21.88,74184.5,4.47,-31.29,-31.45,0,*7C
1496336812.89,62900,21.88,74182.8,4.49,-31.61,-31.79,0,*70
1496336814.17,62901,21.88,74182.8,4.47,-31.51,-31.61,0,*75
1496336815.42,62902,21.88,74180.3,4.47,-31.11,-31.33,0,*75
1496336816.65,62903,21.88,74180.5,4.47,-31.17,-31.45,0,*73
1496336817.91,62904,21.88,74178.0,4.47,-31.11,-31.29,0,*78
1496336819.14,62905,21.88,74182.3,4.47,-31.29,-31.45,0,*78
1496336820.37,62906,21.88,74182.0,4.47,-31.17,-31.29,0,*7C
1496336821.61,62907,21.88,74184.0,4.47,-31.67,-31.85,0,*7C
1496336822.82,62908,21.88,74184.0,4.49,-31.33,-31.45,0,*70
1496336824.07,62909,21.88,74182.3,4.47,-31.33,-31.51,0,*7A
1496336825.3,62910,21.88,74182.3,4.47,-31.33,-31.45,0,*77
1496336826.53,62911,21.88,74186.0,4.45,-31.33,-31.51,0,*71
1496336827.75,62912,21.88,74184.5,4.47,-31.17,-31.33,0,*72
1496336829.0,62913,21.88,74190.8,4.45,-31.51,-31.73,0,*77
1496336830.23,62914,21.88,74190.8,4.47,-31.17,-31.45,0,*75
1496336831.45,62915,21.88,74186.8,4.45,-31.33,-31.57,0,*73
1496336832.7,62916,21.88,74182.0,4.45,-31.57,-31.85,0,*7D
1496336833.94,62917,21.88,74178.5,4.45,-31.39,-31.57,0,*7B
1496336835.16,62918,21.88,74176.8,4.45,-31.39,-31.67,0,*77
1496336836.38,62919,21.88,74176.3,4.47,-31.17,-31.33,0,*79
1496336837.63,62920,21.88,74176.5,4.47,-31.17,-31.51,0,*77
1496336838.86,62921,21.88,74174.8,4.47,-31.17,-31.45,0,*73
1496336840.12,62922,21.88,74176.8,4.47,-31.29,-31.61,0,*7B
1496336841.37,62923,21.88,74182.8,4.47,-31.45,-31.61,0,*70
1496336842.62,62924,21.88,74184.5,4.45,-31.57,-31.73,0,*75
1496336843.87,62925,21.88,74180.3,4.45,-31.39,-31.57,0,*7A
1496336845.08,62926,21.88,74178.8,4.45,-31.67,-31.73,0,*74
1496336846.3,62927,21.88,74182.8,4.45,-31.51,-31.67,0,*75
1496336847.52,62928,21.88,74180.3,4.45,-31.33,-31.57,0,*7D
1496336848.77,62929,21.88,74186.3,4.45,-31.51,-31.73,0,*7E
1496336849.99,62930,21.88,74182.0,4.45,-31.39,-31.67,0,*7D
1496336851.21,62931,21.88,74176.8,4.45,-31.17,-31.39,0,*7B
1496336852.46,62932,21.88,74178.5,4.47,-31.33,-31.61,0,*71
1496336853.72,62933,21.88,74176.8,4.45,-31.23,-31.39,0,*7E
1496336854.93,62934,21.88,74184.5,4.43,-31.05,-31.33,0,*71
1496336856.21,62935,21.88,74184.0,4.43,-31.23,-31.51,0,*70
1496336857.48,62936,21.88,74182.5,4.43,-31.39,-31.51,0,*78
1496336858.76,62937,21.88,74176.8,4.43,-31.39,-31.51,0,*79
1496336860.0,62938,21.88,74176.0,4.43,-31.33,-31.39,0,*72
1496336861.23,62939,21.88,74180.3,4.43,-31.01,-31.17,0,*7E
1496336862.44,62940,21.88,74178.8,4.43,-31.01,-31.05,0,*73
1496336863.66,62941,21.88,74180.3,4.43,-31.17,-31.33,0,*70
1496336864.91,62942,21.88,74182.8,4.43,-30.89,-31.17,0,*73
1496336866.16,62943,21.88,74174.5,4.43,-31.05,-31.23,0,*70
1496336867.38,62944,21.88,74176.3,4.43,-31.05,-31.33,0,*76
1496336868.6,62945,21.88,74182.3,4.45,-31.17,-31.39,0,*78
1496336869.83,62946,21.88,74178.8,4.45,-31.05,-31.23,0,*73
1496336871.08,62947,21.88,74170.8,4.43,-31.17,-31.39,0,*7C
1496336872.32,62948,21.88,74178.5,4.43,-31.05,-31.39,0,*70
1496336873.57,62949,21.88,74180.5,4.43,-30.89,-31.05,0,*7B
1496336874.85,62950,21.88,74182.3,4.43,-31.23,-31.39,0,*7D
1496336876.12,62951,21.88,74184.3,4.43,-30.89,-31.23,0,*76
1496336877.37,62952,21.88,74182.0,4.43,-30.89,-31.05,0,*71
1496336878.59,62953,21.88,74182.8,4.43,-31.05,-31.33,0,*70
1496336879.81,62954,21.88,74182.5,4.41,-30.89,-31.05,0,*75
1496336881.04,62955,21.88,74178.3,4.43,-30.83,-31.17,0,*7F
1496336882.26,62956,21.88,74178.3,4.43,-31.05,-31.33,0,*75
1496336883.5,62957,21.88,74180.5,4.45,-31.51,-31.85,0,*7E
1496336884.73,62958,21.88,74184.0,4.45,-31.17,-31.51,0,*7A
1496336885.94,62959,21.94,74186.8,4.43,-31.05,-31.33,0,*7A
1496336887.16,62960,21.88,74182.3,4.43,-31.05,-31.33,0,*70
1496336888.38,62961,21.88,74174.3,4.43,-31.17,-31.33,0,*72
1496336889.6,62962,21.88,74180.3,4.43,-31.05,-31.33,0,*72
1496336890.85,62963,21.88,74182.3,4.43,-31.05,-31.23,0,*72
1496336892.09,62964,21.88,74180.3,4.43,-31.01,-31.23,0,*71
1496336893.34,62965,21.88,74180.5,4.43,-31.01,-31.23,0,*70
1496336894.56,62966,21.88,74184.3,4.43,-31.01,-31.33,0,*72
1496336895.8,62967,21.88,74180.0,4.43,-31.05,-31.39,0,*7D
1496336897.07,62968,21.88,74178.8,4.43,-31.39,-31.73,0,*73
1496336898.35,62969,21.88,74180.0,4.43,-31.23,-31.39,0,*77
1496336899.59,62970,21.88,74186.3,4.43,-31.33,-31.57,0,*76
1496336900.82,62971,21.88,74180.8,4.41,-31.23,-31.45,0,*77
1496336902.04,62972,21.88,74186.5,4.41,-31.29,-31.57,0,*7D
1496336903.27,62973,21.88,74186.0,4.45,-31.05,-31.23,0,*75
1496336904.5,62974,21.88,74180.3,4.41,-31.11,-31.45,0,*73